User: anonymous   Login
Location: Camp at the Woods
(43.2055°N, 93.0905°W)
Time: 17:34:25
(UTC+00:00)
Language:

Cosmos 2219 Rocket - Orbit

View from above orbital plane
View from above orbital plane
View from above satellite
View from above satellite

Ground track
Ground track

The orbit data is extracted from the following two-line orbital elements,

1 22220U 92076B   24107.55331289 -.00000053  00000-0 -25637-5 0  9990
2 22220  71.0008 206.1295 0010653  66.0306 305.2821 14.16642401624133
Epoch (UTC): 16 April 2024 13:16:46
Eccentricity: 0.0010653
inclination: 71.0008°
perigee height: 829 km
apogee height: 844 km
right ascension of ascending node: 206.1295°
argument of perigee: 66.0306°
revolutions per day: 14.16642401
mean anomaly at epoch: 305.2821°
orbit number at epoch: 62413

The dashed part of the orbit path shows where the satellite is in the earth's shadow,  

DLR